Location: �quirre
(50.4736°N, 2.2351°E)
Time: 10:42:12
(UTC+00:00)

Cosmos 2233 Rocket - Pass Details

Date: 07 August 2020
Orbit: 952 x 991 km, 82.9° (Epoch: 20 September)

Event Time Altitude Azimuth Distance (km) Brightness Sun altitude
Exits shadow 00:10:42 37° 226° (SW) 1,491 4.6 -23.1°
Maximum altitude 00:13:02 57° 285° (WNW) 1,158 4.4 -23.1°
Drops below altitude 10° 00:19:17 10° 4° (N) 2,767 7.5 -23.0°
Sets 00:21:53 0° 8° (N) 3,719 8.5 -23.0°
